Weather History for Rogers, AR

Change the Weather History Date:

Thursday, May 30, 2013

  Actual Average Record
Temperature  
Mean Temperature 71 °F -  
Max Temperature 80 °F 75 °F 87 °F (1998)
Min Temperature 62 °F 57 °F 55 °F (2005)
Cooling Degree Days 6    
Growing Degree Days 21 (Base 50)    
Moisture  
Dew Point 63 °F    
Average Humidity 83    
Maximum Humidity 96    
Minimum Humidity 60    
Precipitation  
Precipitation 0.81 in - - ()
Sea Level Pressure  
Sea Level Pressure 29.81 in    
Wind  
Wind Speed 17 mph (SSE)    
Max Wind Speed 38 mph    
Max Gust Speed 55 mph    
Visibility 9 miles    
Events Rain , Thunderstorm    
Averages and records for this station are not official NWS values.
T = Trace of Precipitation, MM = Missing Value Source: NWS Daily Summary

Daily Weather History Graph

Daily Weather History Graph

Search for Another Location

Airport:

Trip Planner

Search our weather history database for the weather conditions in past years. The results will help you decide how hot, cold, wet, or windy it might be!

Date:

Astronomy

May. 30, 2013 Rise Set
Actual Time 6:00 AM CDT 8:27 PM CDT
Civil Twilight 5:30 AM CDT 8:57 PM CDT
Nautical Twilight 4:54 AM CDT 9:34 PM CDT
Astronomical Twilight 4:13 AM CDT 10:15 PM CDT
Moon 12:35 AM CDT (5/30) 12:03 PM CDT (5/30)
Length of Visible Light 15h 26m
Length of Day
14h 27m
Waning Gibbous, 62% of the Moon is Illuminated
May 30
Waning Gibbous
May 31
Last Quarter
Jun 8
New
Jun 16
First Quarter
Jun 23
Full

Hourly Weather History & Observations

Time (CDT) Temp. Heat Index Dew Point Humidity Pressure Visibility Wind Dir Wind Speed Gust Speed Precip Events Conditions
12:57 AM 73.9 °F - 63.0 °F 68% 29.78 in 10.0 mi SSE 16.1 mph 21.9 mph N/A   Partly Cloudy
1:57 AM 73.9 °F - 63.0 °F 68% 29.76 in 10.0 mi SSE 20.7 mph 28.8 mph N/A   Scattered Clouds
2:35 AM 73.4 °F - 64.4 °F 73% 29.83 in 10.0 mi SSE 27.6 mph 44.9 mph N/A Thunderstorm Mostly Cloudy
2:38 AM 73.4 °F - 62.6 °F 69% 29.84 in 4.0 mi South 38.0 mph 55.2 mph 0.05 in Rain , Thunderstorm Light Rain
2:43 AM 69.8 °F - 60.8 °F 73% 29.85 in 2.5 mi South 27.6 mph 55.2 mph 0.18 in Rain , Thunderstorm Heavy Rain
2:47 AM 66.2 °F - 60.8 °F 83% 29.86 in 3.0 mi South 19.6 mph 36.8 mph 0.22 in Rain , Thunderstorm Heavy Thunderstorms and Rain
2:50 AM 64.4 °F - 60.8 °F 88% 29.86 in 4.0 mi SSW 16.1 mph 36.8 mph 0.22 in Rain , Thunderstorm Light Thunderstorms and Rain
2:57 AM 64.0 °F - 60.1 °F 87% 29.83 in 10.0 mi SW 16.1 mph 23.0 mph 0.22 in Rain , Thunderstorm Light Thunderstorms and Rain
3:02 AM 64.4 °F - 60.8 °F 88% 29.86 in 10.0 mi WSW 15.0 mph 21.9 mph 0.01 in Rain , Thunderstorm Light Rain
3:10 AM 62.6 °F - 60.8 °F 94% 29.87 in 10.0 mi WSW 6.9 mph 20.7 mph 0.01 in Rain Light Rain
3:57 AM 63.0 °F - 61.0 °F 93% 29.84 in 10.0 mi SSE 8.1 mph - 0.07 in Rain Light Rain
4:57 AM 63.0 °F - 61.0 °F 93% 29.79 in 10.0 mi ESE 11.5 mph - 0.03 in   Overcast
5:57 AM 62.1 °F - 61.0 °F 96% 29.79 in 10.0 mi ESE 10.4 mph - N/A   Mostly Cloudy
6:57 AM 63.0 °F - 61.0 °F 93% 29.81 in 10.0 mi SE 9.2 mph - N/A   Overcast
7:11 AM 62.6 °F - 60.8 °F 94% 29.86 in 10.0 mi SE 4.6 mph - N/A   Overcast
7:20 AM 62.6 °F - 60.8 °F 94% 29.85 in 10.0 mi ESE 10.4 mph - N/A   Overcast
7:57 AM 66.0 °F - 63.0 °F 90% 29.80 in 10.0 mi SE 12.7 mph - N/A   Partly Cloudy
8:57 AM 72.0 °F - 66.9 °F 84% 29.78 in 10.0 mi South 21.9 mph 27.6 mph N/A   Partly Cloudy
9:57 AM 75.9 °F - 66.0 °F 71% 29.77 in 10.0 mi South 20.7 mph 35.7 mph N/A   Partly Cloudy
10:57 AM 78.1 °F - 66.0 °F 66% 29.79 in 10.0 mi South 23.0 mph 35.7 mph N/A   Overcast
11:57 AM 78.1 °F - 66.0 °F 66% 29.79 in 10.0 mi South 16.1 mph 23.0 mph N/A   Overcast
12:57 PM 80.1 °F 82.3 °F 66.9 °F 64% 29.77 in 10.0 mi South 20.7 mph 36.8 mph N/A   Mostly Cloudy
1:57 PM 77.0 °F - 64.0 °F 64% 29.75 in 10.0 mi SSE 17.3 mph 33.4 mph N/A   Partly Cloudy
2:57 PM 75.9 °F - 61.0 °F 60% 29.77 in 10.0 mi South 19.6 mph 33.4 mph 0.00 in Thunderstorm Thunderstorm
3:22 PM 69.8 °F - 62.6 °F 78% 29.81 in 10.0 mi SSE 27.6 mph 38.0 mph 0.02 in Rain Light Rain
3:25 PM 68.0 °F - 60.8 °F 78% 29.81 in 10.0 mi SSE 21.9 mph 38.0 mph 0.02 in Rain , Thunderstorm Light Rain
3:57 PM 66.9 °F - 62.1 °F 84% 29.77 in 10.0 mi SE 11.5 mph - 0.02 in Thunderstorm Overcast
4:02 PM 68.0 °F - 62.6 °F 83% 29.79 in 10.0 mi SE 10.4 mph - N/A   Overcast
4:08 PM 68.0 °F - 62.6 °F 83% 29.78 in 10.0 mi SE 11.5 mph 18.4 mph N/A Thunderstorm Thunderstorm
4:25 PM 69.8 °F - 64.4 °F 83% 29.78 in 10.0 mi SSE 15.0 mph 20.7 mph N/A   Overcast
4:57 PM 71.1 °F - 66.0 °F 84% 29.75 in 10.0 mi SSE 13.8 mph - N/A   Overcast
5:57 PM 72.0 °F - 66.9 °F 84% 29.74 in 10.0 mi South 15.0 mph 21.9 mph 0.01 in   Mostly Cloudy
6:07 PM 71.6 °F - 66.2 °F 83% 29.78 in 10.0 mi South 12.7 mph - N/A Thunderstorm Mostly Cloudy
6:13 PM 71.6 °F - 66.2 °F 83% 29.77 in 10.0 mi SSE 17.3 mph - N/A Thunderstorm Mostly Cloudy
6:42 PM 71.6 °F - 66.2 °F 83% 29.77 in 10.0 mi SSE 15.0 mph 24.2 mph 0.00 in   Overcast
6:57 PM 72.0 °F - 66.9 °F 84% 29.75 in 10.0 mi SSE 20.7 mph 25.3 mph 0.00 in   Overcast
7:09 PM 71.6 °F - 66.2 °F 83% 29.78 in 10.0 mi South 23.0 mph 31.1 mph N/A Thunderstorm Overcast
7:36 PM 71.6 °F - 66.2 °F 83% 29.78 in 10.0 mi SSE 13.8 mph 23.0 mph 0.01 in Rain , Thunderstorm Light Rain
7:57 PM 71.1 °F - 66.0 °F 84% 29.77 in 10.0 mi SSE 11.5 mph - 0.01 in Rain , Thunderstorm Light Rain
8:11 PM 71.6 °F - 66.2 °F 83% 29.80 in 10.0 mi SSE 10.4 mph 20.7 mph 0.00 in   Overcast
8:57 PM 71.1 °F - 66.9 °F 87% 29.76 in 10.0 mi SE 12.7 mph 17.3 mph 0.00 in   Overcast
9:14 PM 71.6 °F - 66.2 °F 83% 29.80 in 10.0 mi SSE 12.7 mph 19.6 mph N/A Thunderstorm Overcast
9:57 PM 71.1 °F - 66.0 °F 84% 29.79 in 10.0 mi SSE 5.8 mph - 0.01 in Rain , Thunderstorm Light Rain
10:21 PM 69.8 °F - 64.4 °F 83% 29.89 in 6.0 mi WSW 28.8 mph 44.9 mph 0.08 in Rain , Thunderstorm Heavy Thunderstorms and Rain
10:29 PM 64.4 °F - 59.0 °F 83% 29.88 in 2.5 mi WSW 8.1 mph 40.3 mph 0.37 in Rain , Thunderstorm Heavy Thunderstorms and Rain
10:32 PM 62.6 °F - 59.0 °F 88% 29.88 in 3.0 mi SSW 5.8 mph - 0.41 in Rain , Thunderstorm Heavy Thunderstorms and Rain
10:38 PM 62.6 °F - 60.8 °F 94% 29.85 in 6.0 mi East 5.8 mph - 0.43 in Rain , Thunderstorm Thunderstorms and Rain
10:57 PM 63.0 °F - 61.0 °F 93% 29.81 in 10.0 mi South 6.9 mph - 0.44 in Thunderstorm Thunderstorm
11:20 PM 62.6 °F - 60.8 °F 94% 29.84 in 10.0 mi ESE 5.8 mph - N/A   Clear
11:24 PM 62.6 °F - 60.8 °F 94% 29.84 in 10.0 mi East 6.9 mph - N/A Thunderstorm Clear
11:42 PM 62.6 °F - 60.8 °F 94% 29.84 in 10.0 mi ESE 5.8 mph - N/A   Clear
11:57 PM 64.0 °F - 62.1 °F 93% 29.81 in 10.0 mi SE 10.4 mph - N/A   Clear